Flag Weather past 2 weeks in Kirchdorf an der Krems, Upper Austria, Austria

Now
34 °F

Chilly.


Feels Like: 27 °F
Forecast: 38 / 49 °F
Wind: 8 mph from East

Location: Kremsmuenster

Current Time: Nov 28, 2014 at 10:02:53 PM

Latest Report: Nov 28, 2014 at 9:00 PM


Visibility: N/A

Pressure: 30.03 "Hg

Humidity: 98%

Dew point: 33 °F

Location of Kirchdorf an der KremsLocation

Historic Weather in Kirchdorf an der Krems — Graph

°F

Kirchdorf an der Krems temperature yesterday

Maximum temperature yesterday: 38 °F (at 3:00 PM)
Minimum temperature yesterday: 33 °F (at 6:00 AM)
Average temperature yesterday: 35 °F

Past Weeks' High & Low Weather Summary

 TemperatureHumidityPressure
High54 °F (Nov 15, 3:00 PM)100% (Nov 14, 7:00 PM)30.34 "Hg (Nov 14, 7:00 PM)
Low33 °F (Nov 27, 6:00 AM)62% (Nov 16, 1:00 PM)29.47 "Hg (Nov 16, 2:00 AM)
Average41 °F89%30.04 "Hg
* Reported Nov 13 8:00 PM — Nov 28 8:00 PM, Kirchdorf an der Krems, Weather by CustomWeather, © 2014

Note: Actual official high and low records may vary slightly from our data, if they occured in-between our weather recording intervals... More about our weather records

Advertising

Kirchdorf an der Krems weather history for previous 24 hours

 ConditionsComfort  
Time TempWeatherWind HumidityBarometerVisibility
8:00 PM
Nov 28
34 °FChilly.9 mph98%30.02 "HgN/A
7:00 PM34 °FFog.9 mph97%30.01 "Hg2 mi
6:00 PM34 °FChilly.9 mph97%30.01 "HgN/A
5:00 PM34 °FChilly.9 mph96%30.01 "HgN/A
4:00 PM34 °FFog.9 mph94%29.99 "Hg2 mi
3:00 PM34 °FChilly.9 mph93%29.99 "HgN/A
2:00 PM35 °FChilly.8 mph91%29.98 "HgN/A
1:00 PM35 °FChilly.9 mph91%29.99 "HgN/A
12:00 PM35 °FChilly.8 mph92%29.99 "HgN/A
11:00 AM34 °FChilly.8 mph92%30.00 "HgN/A
10:00 AM34 °FFog.9 mph94%30.01 "Hg1 mi
9:00 AM33 °FChilly.8 mph95%30.00 "HgN/A
8:00 AM33 °FChilly.8 mph95%30.00 "HgN/A
7:00 AM33 °FFog.7 mph95%29.99 "Hg2 mi
6:00 AM33 °FChilly.8 mph93%29.98 "HgN/A
5:00 AM33 °FChilly.7 mph93%29.98 "HgN/A
4:00 AM33 °FChilly.8 mph92%29.98 "HgN/A
3:00 AM33 °FChilly.8 mph91%29.97 "HgN/A
2:00 AM34 °FChilly.8 mph88%29.96 "HgN/A
1:00 AM34 °FChilly.7 mph87%29.96 "HgN/A
12:00 AM34 °FChilly.5 mph87%29.96 "HgN/A
11:00 PM
Nov 27
34 °FChilly.7 mph87%29.96 "HgN/A
10:00 PM34 °FChilly.7 mph86%29.95 "HgN/A
Weather by CustomWeather, © 2014

See weather overviewHow to use our weather pages